STARLINK-1840 (47131 NORAD) Tracking and Keplerian Element Data

This shows tracking and keplerian element data for the satellite.

Feedback or suggestion? Click here.




ElementValue
Catalog47131
NameSTARLINK-1840
Epoch Orbit975
Epoch Day21.16668981
Epoch Year2021
RAAN72.8985
Inclination53.0552
Eccentricity0.0001898
Argument of Perigee27.6378
Mean Anonmoly41.2411
Mean Motion15.62740412
Decay Rate0.00044384
L11 47131U 20088K 21021.16668981 .00044384 00000-0 48815-3 0 9997
L22 47131 53.0552 72.8985 0001898 27.6378 41.2411 15.62740412 9752

Live tracking and technical data element details for STARLINK-1840 (NORAD 47131). STARLINK-1840 can be tracked NOW for your location showing map with azimuth and elevation plus other details from your city location.

Track the satellite on the map from your city or location and see movement details for azimuth, elevation, latitude, longitude, range, height, and movement on the map or in text.







IsCatalogInMostPopularTable: catalog: 47131, numindb: 16
Update: records affected: 1



GetName: 47131 STARLINK-1840

Hit Count: updated at: Fri, 22 Jan 2021 15:56:55 GMT